Tracking 20710 objects as of 30-May-2020
HD Live streaming from Space Station
objects crossing your sky now

FENGYUN 1C DEB

Track FENGYUN 1C DEB now!
10-day predictions


NORAD ID: 31092
Int'l Code: 1999-025BGN
Perigee: 855.3 km
Apogee: 1,368.2 km
Inclination: 99.5 °
Period: 107.4 minutes
Semi major axis: 7482 km
RCS: 0.0082 m2 (small)
Launch date: May 10, 1999
Source: People's Republic of China (PRC)
Launch site: Taiyaun Space Center, China (TSC)

Note: This is SATELLITE DEBRIS
aabbcc
Your satellite tracking list
Your tracking list is empty




NASA's NSSDC Master Catalog

Two Line Element Set (TLE):
1 31092U 99025BGN 20150.43696985 +.00000205 +00000-0 +31122-3 0  9997
2 31092 099.5186 328.1364 0342700 082.3846 281.6062 13.41262785647998
Source of the keplerian elements: AFSPC